CDT,Max TemperatureF,Mean TemperatureF,Min TemperatureF,Max Dew PointF,MeanDew PointF,Min DewpointF,Max Humidity, Mean Humidity, Min Humidity, Max Sea Level PressureIn, Mean Sea Level PressureIn, Min Sea Level PressureIn, Max VisibilityMiles, Mean VisibilityMiles, Min VisibilityMiles, Max Wind SpeedMPH, Mean Wind SpeedMPH, Max Gust SpeedMPH,PrecipitationIn, CloudCover, Events, WindDirDegrees
2013-7-1,77,70,64,61,59,56,90,69,52,30.17,30.02,29.88,10,10,4,23,8,30,0.15,4,Rain,99
2013-7-2,82,70,59,60,54,49,90,58,31,30.12,30.06,29.97,10,10,10,12,3,,0.00,3,,130
2013-7-3,90,76,64,53,44,39,57,33,18,30.01,29.93,29.83,10,10,10,16,9,23,0.00,1,,147
2013-7-4,91,80,70,49,47,43,46,31,21,29.86,29.81,29.75,10,10,10,31,16,40,0.00,0,,141
2013-7-5,97,84,71,55,51,48,51,33,20,29.85,29.78,29.69,10,10,10,22,17,31,0.00,0,,145
2013-7-6,97,84,73,56,52,44,49,33,22,29.81,29.76,29.70,10,10,10,23,19,33,0.00,0,,143
2013-7-7,93,81,71,62,54,48,64,38,25,29.88,29.83,29.77,10,10,10,18,14,30,0.00,0,,135
2013-7-8,91,82,72,65,61,57,76,51,34,29.99,29.93,29.87,10,10,10,20,13,31,0.00,0,,134
2013-7-9,93,82,72,63,61,59,71,51,34,30.03,29.96,29.88,10,10,10,18,13,29,0.00,1,,141
2013-7-10,97,84,73,62,59,54,66,43,26,30.00,29.92,29.83,10,10,10,17,12,23,0.00,0,,141
2013-7-11,98,86,75,59,54,46,55,36,19,29.92,29.86,29.79,10,10,10,18,12,25,0.00,0,,141
2013-7-12,97,84,72,59,54,45,59,37,21,29.87,29.83,29.78,10,10,10,18,11,30,0.00,0,,146
2013-7-13,97,84,72,54,50,43,51,31,18,29.96,29.87,29.81,10,10,10,20,11,24,0.00,0,,143
2013-7-14,99,85,72,51,45,38,46,26,12,29.87,29.79,29.69,10,10,10,15,10,29,0.00,1,,171
2013-7-15,84,72,62,63,61,49,100,88,31,30.11,30.01,29.71,10,6,2,21,11,30,0.47,7,Rain,49
2013-7-16,70,66,62,65,62,60,94,86,73,30.21,30.11,30.01,10,9,3,14,4,,0.00,8,Rain,43
2013-7-17,78,70,66,68,65,64,100,88,67,30.24,30.16,30.06,10,8,1,17,7,26,0.71,7,Rain,106
2013-7-18,80,73,66,66,64,60,94,80,50,30.21,30.11,29.97,10,10,7,20,10,28,0.01,5,Rain,118
2013-7-19,86,76,68,66,63,60,90,67,44,30.14,29.96,29.87,10,10,10,18,12,26,0.00,2,,130
2013-7-20,87,78,71,66,63,59,78,63,43,29.94,29.87,29.80,10,10,10,18,9,25,0.00,2,,148
2013-7-21,89,79,70,67,63,60,84,62,40,29.94,29.84,29.76,10,10,10,17,8,26,0.00,2,Rain,152
2013-7-22,91,80,70,68,65,61,84,64,43,29.98,29.85,29.77,10,10,10,16,10,26,0.05,1,Rain,155
2013-7-23,97,83,70,67,63,56,84,53,26,29.91,29.83,29.76,10,10,10,21,9,26,0.00,1,,171
2013-7-24,97,84,73,67,62,55,79,48,28,29.90,29.84,29.80,10,10,8,16,9,28,0.00,0,,153
2013-7-25,96,82,70,63,58,52,75,46,24,29.99,29.93,29.88,10,10,10,14,7,23,0.00,0,,169
2013-7-26,98,84,73,68,60,53,82,50,29,29.99,29.93,29.87,10,10,7,16,11,26,0.05,1,Rain,256
2013-7-27,89,80,71,70,60,48,93,58,25,30.05,29.96,29.86,10,10,9,12,6,16,0.06,0,,103
2013-7-28,93,80,68,64,60,53,64,50,34,29.90,29.83,29.75,10,10,10,17,10,24,0.00,1,,172
2013-7-29,93,82,73,67,64,61,81,61,35,29.93,29.87,29.82,10,10,10,18,8,22,0.02,1,Rain,175
2013-7-30,100,86,73,67,63,57,79,52,26,29.96,29.92,29.87,10,10,10,24,9,33,0.00,0,,215
2013-7-31,98,84,73,65,61,57,71,45,28,30.01,29.95,29.90,10,10,10,15,9,22,0.00,0,,141